Summerland, British Columbia

6:40 AM PDT on July 21, 2017 (GMT -0700)
Summerland

Weather History for CWUS - February, 2013

Change the Weather History Date:

Wednesday, February 27, 2013

  Actual Average (CYYF) Record (CYYF)
Temperature  
Mean Temperature 41 °F -  
Max Temperature 48 °F 41 °F 56 °F (2016)
Min Temperature 34 °F 26 °F 12 °F (2009)
Degree Days  
Heating Degree Days 24    
Moisture  
Dew Point 25 °F    
Average Humidity 53    
Maximum Humidity 75    
Minimum Humidity 24    
Precipitation  
Precipitation 0.00 in - - ()
Sea Level Pressure  
Sea Level Pressure 30.23 in    
Wind  
Wind Speed 7 mph ()    
Max Wind Speed 16 mph    
Max Gust Speed 25 mph    
Averages and records for this station are not official NWS values.
T = Trace of Precipitation, MM = Missing Value Source: Averaged Metar Reports

Daily Weather History Graph

Daily Weather History Graph

Search for Another Location

Airport or City:

Trip Planner

Search our weather history database for the weather conditions in past years. The results will help you decide how hot, cold, wet, or windy it might be!

Date:

Astronomy

Feb. 27, 2013 Rise Set
Actual Time 6:44 AM PST 5:38 PM PST
Civil Twilight 6:12 AM PST 6:10 PM PST
Nautical Twilight 5:35 AM PST 6:47 PM PST
Astronomical Twilight 4:58 AM PST 7:25 PM PST
Moon 8:24 PM PST (2/27) 7:06 AM PST (2/27)
Length of Visible Light 11h 58m
Length of Day
10h 54m
Waning Gibbous, 96% of the Moon is Illuminated
Feb 27
Waning Gibbous
Mar 4
Last Quarter
Mar 11
New
Mar 19
First Quarter
Mar 27
Full

Hourly Weather History & Observations

Time (PST) Temp. Windchill Dew Point Humidity Pressure Visibility Wind Dir Wind Speed Gust Speed Precip Events Conditions
12:00 AM 39.9 °F 31.4 °F 23.4 °F 52% 30.18 in - South 16.1 mph 25.3 mph N/A   Unknown
1:00 AM 39.9 °F 32.5 °F 23.2 °F 51% 30.18 in - South 12.7 mph 19.6 mph N/A   Unknown
2:00 AM 40.1 °F 34.7 °F 23.0 °F 51% 30.19 in - South 8.1 mph - N/A   Unknown
3:00 AM 38.1 °F 35.7 °F 25.2 °F 60% 30.19 in - SSE 3.5 mph - N/A   Unknown
4:00 AM 37 °F - 25 °F 49% 30.18 in - SSE 3.5 mph - -  
4:00 AM 37.2 °F 34.7 °F 24.8 °F 61% 30.18 in - SSE 3.5 mph - N/A   Unknown
5:00 AM 35.4 °F - 25.2 °F 66% 30.21 in - SSE 2.3 mph - N/A   Unknown
6:00 AM 34.7 °F 31.8 °F 25.2 °F 68% 30.23 in - North 3.5 mph - N/A   Unknown
7:00 AM 34.5 °F 30.4 °F 24.3 °F 66% 30.25 in - WNW 4.6 mph - N/A   Unknown
8:00 AM 34.9 °F 30.8 °F 23.7 °F 64% 30.28 in - West 4.6 mph - N/A   Unknown
9:00 AM 36.5 °F - 25.2 °F 64% 30.28 in - WNW 2.3 mph - N/A   Unknown
10:00 AM 43 °F - 27 °F 41% 30.27 in - SE 4.6 mph - -  
10:00 AM 43.0 °F 40.3 °F 27.3 °F 54% 30.27 in - SE 4.6 mph - N/A   Unknown
11:00 AM 44.2 °F 39.2 °F 26.4 °F 50% 30.25 in - SE 9.2 mph - N/A   Unknown
12:00 PM 45.7 °F 41.0 °F 27.3 °F 49% 30.25 in - SE 9.2 mph - N/A   Unknown
2:00 PM 44.8 °F 40.4 °F 24.4 °F 45% 30.22 in - SSE 8.1 mph - N/A   Unknown
3:00 PM 48.6 °F - 22.5 °F 36% 30.22 in - SSE 8.1 mph - N/A   Unknown
4:00 PM 46 °F - 21 °F 24% 30.21 in - SSE 11.5 mph - -  
4:00 PM 45.5 °F 39.9 °F 20.8 °F 38% 30.21 in - SSE 11.5 mph - N/A   Unknown
5:00 PM 44.2 °F 38.8 °F 21.6 °F 41% 30.22 in - SSE 10.4 mph 18.4 mph N/A   Unknown
6:00 PM 43.5 °F 40.1 °F 21.4 °F 41% 30.23 in - South 5.8 mph - N/A   Unknown
7:00 PM 42.3 °F - 26.8 °F 54% 30.25 in - NNW 1.2 mph - N/A   Unknown
8:00 PM 39.9 °F 36.7 °F 26.2 °F 58% 30.26 in - West 4.6 mph - N/A   Unknown
10:00 PM 39 °F - 30 °F 61% 30.27 in - West 3.5 mph - -  
11:00 PM 37.8 °F 35.3 °F 30.6 °F 75% 30.29 in - West 3.5 mph - N/A   Unknown